Location: Bad Salzschlirf
(50.3750°N, 9.3000°E)
Time: 03:57:17
(UTC+02:00)

ISS - Pass Details

Date: 14 July 2025
Orbit: 413 x 417 km, 51.6° (Epoch: 12 July)

Event Time Altitude Azimuth Distance (km) Brightness Sun altitude
Rises 22:43:49 0° 268° (W) 2,350 0.6 -9.4°
Reaches altitude 10° 22:45:55 10° 271° (W) 1,489 -0.4 -9.6°
Maximum altitude 22:49:14 70° 355° (N) 446 -3.5 -9.9°
Drops below altitude 10° 22:52:35 10° 80° (E) 1,492 -1.2 -10.3°
Sets 22:54:41 0° 83° (E) 2,355 -0.2 -10.5°
Enters shadow 22:54:45 - 83° (E) 2,380 -0.2 -10.5°
